logo
Search for airport 
image banner adimage banner adimage banner ad
image banner ad

ED2020 - Coswig Fachkrankenhaus

Located in Coswig, Germany

ICAO - , IATA -

Data provided by Airmate  

General information

Coordinates: N51°7'55" E13°35'35"
Elevation is 407 feet MSL.
 
View others Airports in Saxony

Operational data

Special qualification required
Current time UTC:
Current local time:
Weather at : EDDC - Dresden ( 12 km )
METAR: EDDC 302150Z AUTO 20003KT 150V230 CAVOK 14/12 Q1005
TAF: TAF EDDC 301700Z 3018/3118 15005KT 9999 FEW045 BECMG 3018/3020 21005KT TEMPO 3018/3020 4000 SHRA BKN035CB PROB30 TEMPO 3018/3020 TSRA BKN035CB BECMG 3022/3102 4000 BR BKN008 TEMPO 3100/3106 2500 BR BKN004 BECMG 3105/3108 32005KT 9999 BKN012 BECMG 3108/3111 SCT020 TEMPO 3116/3118 3000 SHRA BKN025CB
View NOTAMs / SUP AIP / TFR affecting this airport [VIEW]
Communications frequencies: [VIEW]

Runways:

Airport contact information

Address: Coswig Germany

Satellite view of ED2020